"Sample Date","Sample Time","Sample Value","Units","Flow Rate","Number Channels","Micron Size 0","Counts/Channel 0","Micron Size 1","Counts/Channel 1","Micron Size 2","Counts/Channel 2","Micron Size 3","Counts/Channel 3","Micron Size 4","Counts/Channel 4","Micron Size 5","Counts/Channel 5","Micron Size 6","Counts/Channel 6","Micron Size 7","Counts/Channel 7","Micron Size 8","Counts/Channel 8","Micron Size 9","Counts/Channel 9","Micron Size 10","Counts/Channel 10","Micron Size 11","Counts/Channel 11","Micron Size 12","Counts/Channel 12","Micron Size 13","Counts/Channel 13","Micron Size 14","Counts/Channel 14","Micron Size 15","Counts/Channel 15","Micron Size 16","Counts/Channel 16","Micron Size 17","Counts/Channel 17","Micron Size 18","Counts/Channel 18","Micron Size 19","Counts/Channel 19","Micron Size 20","Counts/Channel 20","Micron Size 21","Counts/Channel 21","Micron Size 22","Counts/Channel 22","Micron Size 23","Counts/Channel 23","Micron Size 24","Counts/Channel 24","Micron Size 25","Counts/Channel 25","Micron Size 26","Counts/Channel 26","Micron Size 27","Counts/Channel 27","Micron Size 28","Counts/Channel 28","Micron Size 29","Counts/Channel 29","Micron Size 30","Counts/Channel 30","Micron Size 31","Counts/Channel 31"
"05/07/08","16:00:01",1218.000,"cc",28691.207,6,0.100,970.000,0.200,232.000,0.300,13.000,0.500,2.000,1.000,1.000,5.000,0
"05/07/08","16:00:07",1134.000,"cc",28647.967,6,0.100,911.000,0.200,208.000,0.300,11.000,0.500,4.000,1.000,0,5.000,0
"05/07/08","16:00:13",1089.000,"cc",28684.332,6,0.100,857.000,0.200,218.000,0.300,12.000,0.500,2.000,1.000,0,5.000,0
"05/07/08","16:00:19",1106.000,"cc",28677.186,6,0.100,874.000,0.200,224.000,0.300,8.000,0.500,0,1.000,0,5.000,0
"05/07/08","16:00:25",1095.000,"cc",28690.406,6,0.100,862.000,0.200,217.000,0.300,15.000,0.500,1.000,1.000,0,5.000,0
"05/07/08","16:00:31",1173.000,"cc",28817.295,6,0.100,923.000,0.200,223.000,0.300,22.000,0.500,5.000,1.000,0,5.000,0
"05/07/08","16:00:37",1117.000,"cc",28739.432,6,0.100,889.000,0.200,214.000,0.300,12.000,0.500,2.000,1.000,0,5.000,0
"05/07/08","16:00:43",1174.000,"cc",28788.074,6,0.100,969.000,0.200,186.000,0.300,16.000,0.500,2.000,1.000,1.000,5.000,0
"05/07/08","16:00:49",1198.000,"cc",28739.549,6,0.100,962.000,0.200,217.000,0.300,13.000,0.500,4.000,1.000,1.000,5.000,1.000
"05/07/08","16:00:55",1169.000,"cc",28726.611,6,0.100,908.000,0.200,240.000,0.300,17.000,0.500,2.000,1.000,2.000,5.000,0
"05/07/08","16:01:01",1143.000,"cc",28710.250,6,0.100,917.000,0.200,193.000,0.300,25.000,0.500,7.000,1.000,1.000,5.000,0
"05/07/08","16:01:07",1161.000,"cc",28791.531,6,0.100,960.000,0.200,187.000,0.300,12.000,0.500,2.000,1.000,0,5.000,0
"05/07/08","16:01:13",1197.000,"cc",28762.594,6,0.100,964.000,0.200,217.000,0.300,14.000,0.500,2.000,1.000,0,5.000,0
"05/07/08","16:01:19",1167.000,"cc",28719.066,6,0.100,931.000,0.200,216.000,0.300,16.000,0.500,3.000,1.000,1.000,5.000,0
"05/07/08","16:01:25",1246.000,"cc",28705.758,6,0.100,994.000,0.200,233.000,0.300,18.000,0.500,1.000,1.000,0,5.000,0
"05/07/08","16:01:31",1223.000,"cc",28674.166,6,0.100,993.000,0.200,208.000,0.300,19.000,0.500,3.000,1.000,0,5.000,0
"05/07/08","16:01:37",1212.000,"cc",28664.236,6,0.100,981.000,0.200,216.000,0.300,13.000,0.500,2.000,1.000,0,5.000,0
"05/07/08","16:01:43",1226.000,"cc",28699.805,6,0.100,987.000,0.200,215.000,0.300,22.000,0.500,2.000,1.000,0,5.000,0
"05/07/08","16:01:49",1257.000,"cc",28691.592,6,0.100,1004.000,0.200,236.000,0.300,14.000,0.500,2.000,1.000,1.000,5.000,0
"05/07/08","16:01:55",1290.000,"cc",28662.211,6,0.100,1054.000,0.200,224.000,0.300,10.000,0.500,2.000,1.000,0,5.000,0
"05/07/08","16:02:01",1280.000,"cc",28669.760,6,0.100,1013.000,0.200,248.000,0.300,14.000,0.500,4.000,1.000,1.000,5.000,0
"05/07/08","16:02:07",1202.000,"cc",28680.137,6,0.100,981.000,0.200,207.000,0.300,11.000,0.500,3.000,1.000,0,5.000,0
"05/07/08","16:02:13",1181.000,"cc",28674.115,6,0.100,970.000,0.200,196.000,0.300,12.000,0.500,2.000,1.000,1.000,5.000,0
"05/07/08","16:02:19",1203.000,"cc",28698.277,6,0.100,986.000,0.200,201.000,0.300,13.000,0.500,3.000,1.000,0,5.000,0
"05/07/08","16:02:25",1259.000,"cc",28654.609,6,0.100,1017.000,0.200,224.000,0.300,17.000,0.500,0,1.000,1.000,5.000,0
"05/07/08","16:02:31",1251.000,"cc",28716.813,6,0.100,993.000,0.200,232.000,0.300,24.000,0.500,1.000,1.000,1.000,5.000,0
"05/07/08","16:02:37",1324.000,"cc",28782.799,6,0.100,1056.000,0.200,252.000,0.300,15.000,0.500,1.000,1.000,0,5.000,0
"05/07/08","16:02:43",1331.000,"cc",28692.742,6,0.100,1059.000,0.200,248.000,0.300,18.000,0.500,5.000,1.000,1.000,5.000,0
"05/07/08","16:02:49",1280.000,"cc",28615.488,6,0.100,1035.000,0.200,221.000,0.300,19.000,0.500,5.000,1.000,0,5.000,0
"05/07/08","16:02:55",1252.000,"cc",28679.666,6,0.100,1026.000,0.200,207.000,0.300,15.000,0.500,4.000,1.000,0,5.000,0
"05/07/08","16:03:01",1225.000,"cc",28611.006,6,0.100,987.000,0.200,219.000,0.300,16.000,0.500,2.000,1.000,1.000,5.000,0
"05/07/08","16:03:07",1226.000,"cc",28611.635,6,0.100,963.000,0.200,242.000,0.300,16.000,0.500,4.000,1.000,1.000,5.000,0
"05/07/08","16:03:13",1314.000,"cc",28419.760,6,0.100,1041.000,0.200,257.000,0.300,12.000,0.500,4.000,1.000,0,5.000,0
"05/07/08","16:03:19",1242.000,"cc",28355.445,6,0.100,997.000,0.200,220.000,0.300,21.000,0.500,3.000,1.000,1.000,5.000,0
"05/07/08","16:03:25",1230.000,"cc",28366.352,6,0.100,981.000,0.200,232.000,0.300,16.000,0.500,1.000,1.000,0,5.000,0
"05/07/08","16:03:31",1292.000,"cc",28321.393,6,0.100,1050.000,0.200,227.000,0.300,12.000,0.500,3.000,1.000,0,5.000,0
"05/07/08","16:03:37",1241.000,"cc",28299.166,6,0.100,1002.000,0.200,226.000,0.300,12.000,0.500,1.000,1.000,0,5.000,0
"05/07/08","16:03:43",1215.000,"cc",28322.576,6,0.100,986.000,0.200,216.000,0.300,12.000,0.500,1.000,1.000,0,5.000,0
"05/07/08","16:03:49",1241.000,"cc",28320.029,6,0.100,998.000,0.200,227.000,0.300,12.000,0.500,4.000,1.000,0,5.000,0
"05/07/08","16:03:55",1191.000,"cc",28282.152,6,0.100,933.000,0.200,249.000,0.300,6.000,0.500,3.000,1.000,0,5.000,0
"05/07/08","16:04:01",1276.000,"cc",28342.295,6,0.100,1023.000,0.200,231.000,0.300,19.000,0.500,1.000,1.000,2.000,5.000,0
"05/07/08","16:04:07",1269.000,"cc",28295.229,6,0.100,993.000,0.200,248.000,0.300,19.000,0.500,6.000,1.000,3.000,5.000,0
"05/07/08","16:04:13",1304.000,"cc",28286.180,6,0.100,1079.000,0.200,210.000,0.300,9.000,0.500,5.000,1.000,1.000,5.000,0
"05/07/08","16:04:19",1234.000,"cc",28328.490,6,0.100,994.000,0.200,223.000,0.300,15.000,0.500,1.000,1.000,1.000,5.000,0
"05/07/08","16:04:25",1229.000,"cc",28331.473,6,0.100,999.000,0.200,215.000,0.300,11.000,0.500,4.000,1.000,0,5.000,0
"05/07/08","16:04:31",1243.000,"cc",28284.020,6,0.100,999.000,0.200,228.000,0.300,12.000,0.500,3.000,1.000,1.000,5.000,0
"05/07/08","16:04:37",1289.000,"cc",28311.844,6,0.100,1032.000,0.200,236.000,0.300,16.000,0.500,5.000,1.000,0,5.000,0
"05/07/08","16:04:43",1272.000,"cc",28308.033,6,0.100,1024.000,0.200,234.000,0.300,11.000,0.500,3.000,1.000,0,5.000,0
"05/07/08","16:04:49",1353.000,"cc",28324.301,6,0.100,1082.000,0.200,249.000,0.300,18.000,0.500,4.000,1.000,0,5.000,0
"05/07/08","16:04:55",1330.000,"cc",28297.203,6,0.100,1106.000,0.200,214.000,0.300,7.000,0.500,3.000,1.000,0,5.000,0
"05/07/08","16:05:01",1323.000,"cc",28318.578,6,0.100,1061.000,0.200,241.000,0.300,17.000,0.500,2.000,1.000,2.000,5.000,0
"05/07/08","16:05:07",1289.000,"cc",28294.277,6,0.100,1038.000,0.200,236.000,0.300,14.000,0.500,1.000,1.000,0,5.000,0
"05/07/08","16:05:13",1256.000,"cc",28375.760,6,0.100,1003.000,0.200,232.000,0.300,21.000,0.500,0,1.000,0,5.000,0
"05/07/08","16:05:19",1230.000,"cc",28299.537,6,0.100,988.000,0.200,224.000,0.300,13.000,0.500,5.000,1.000,0,5.000,0
"05/07/08","16:05:25",1262.000,"cc",28368.852,6,0.100,1002.000,0.200,244.000,0.300,14.000,0.500,2.000,1.000,0,5.000,0
"05/07/08","16:05:31",1217.000,"cc",28326.117,6,0.100,949.000,0.200,252.000,0.300,14.000,0.500,2.000,1.000,0,5.000,0
"05/07/08","16:05:37",1145.000,"cc",28279.981,6,0.100,906.000,0.200,220.000,0.300,17.000,0.500,2.000,1.000,0,5.000,0
"05/07/08","16:05:43",1211.000,"cc",28376.141,6,0.100,988.000,0.200,201.000,0.300,18.000,0.500,4.000,1.000,0,5.000,0
"05/07/08","16:05:49",1178.000,"cc",28276.930,6,0.100,946.000,0.200,213.000,0.300,14.000,0.500,4.000,1.000,1.000,5.000,0
"05/07/08","16:05:55",1160.000,"cc",28340.584,6,0.100,936.000,0.200,207.000,0.300,15.000,0.500,2.000,1.000,0,5.000,0
"05/07/08","16:06:01",1164.000,"cc",28303.854,6,0.100,950.000,0.200,199.000,0.300,11.000,0.500,4.000,1.000,0,5.000,0
"05/07/08","16:06:07",1151.000,"cc",28265.602,6,0.100,958.000,0.200,177.000,0.300,12.000,0.500,4.000,1.000,0,5.000,0
"05/07/08","16:06:13",1171.000,"cc",28354.313,6,0.100,946.000,0.200,209.000,0.300,11.000,0.500,3.000,1.000,2.000,5.000,0
"05/07/08","16:06:19",1182.000,"cc",28404.508,6,0.100,925.000,0.200,248.000,0.300,9.000,0.500,0,1.000,0,5.000,0
"05/07/08","16:06:25",1219.000,"cc",28415.791,6,0.100,990.000,0.200,208.000,0.300,18.000,0.500,1.000,1.000,2.000,5.000,0
"05/07/08","16:06:31",1192.000,"cc",28319.656,6,0.100,953.000,0.200,221.000,0.300,13.000,0.500,4.000,1.000,1.000,5.000,0
"05/07/08","16:06:37",1217.000,"cc",28296.947,6,0.100,975.000,0.200,231.000,0.300,9.000,0.500,2.000,1.000,0,5.000,0
"05/07/08","16:06:43",1205.000,"cc",28271.190,6,0.100,971.000,0.200,216.000,0.300,13.000,0.500,4.000,1.000,1.000,5.000,0
"05/07/08","16:06:49",1188.000,"cc",28257.002,6,0.100,970.000,0.200,201.000,0.300,13.000,0.500,3.000,1.000,1.000,5.000,0
"05/07/08","16:06:55",1258.000,"cc",28298.465,6,0.100,1029.000,0.200,211.000,0.300,16.000,0.500,2.000,1.000,0,5.000,0
"05/07/08","16:07:01",1214.000,"cc",28293.461,6,0.100,977.000,0.200,213.000,0.300,19.000,0.500,4.000,1.000,1.000,5.000,0
"05/07/08","16:07:07",1275.000,"cc",28277.877,6,0.100,1017.000,0.200,236.000,0.300,18.000,0.500,4.000,1.000,0,5.000,0
"05/07/08","16:07:13",1324.000,"cc",28307.772,6,0.100,1042.000,0.200,262.000,0.300,14.000,0.500,4.000,1.000,2.000,5.000,0
"05/07/08","16:07:19",1223.000,"cc",28359.770,6,0.100,957.000,0.200,250.000,0.300,15.000,0.500,1.000,1.000,0,5.000,0
"05/07/08","16:07:25",1329.000,"cc",28384.000,6,0.100,1069.000,0.200,237.000,0.300,19.000,0.500,2.000,1.000,2.000,5.000,0
"05/07/08","16:07:31",1290.000,"cc",28354.471,6,0.100,1039.000,0.200,230.000,0.300,18.000,0.500,2.000,1.000,1.000,5.000,0
"05/07/08","16:07:37",1261.000,"cc",28276.631,6,0.100,1032.000,0.200,220.000,0.300,7.000,0.500,2.000,1.000,0,5.000,0
"05/07/08","16:07:43",1374.000,"cc",28317.783,6,0.100,1114.000,0.200,246.000,0.300,14.000,0.500,0,1.000,0,5.000,0
"05/07/08","16:07:49",1347.000,"cc",28331.631,6,0.100,1104.000,0.200,227.000,0.300,13.000,0.500,2.000,1.000,1.000,5.000,0
"05/07/08","16:07:55",1240.000,"cc",28282.498,6,0.100,976.000,0.200,238.000,0.300,22.000,0.500,3.000,1.000,1.000,5.000,0
"05/07/08","16:08:01",1348.000,"cc",28330.307,6,0.100,1103.000,0.200,222.000,0.300,18.000,0.500,3.000,1.000,2.000,5.000,0
"05/07/08","16:08:07",1217.000,"cc",28321.533,6,0.100,978.000,0.200,219.000,0.300,15.000,0.500,4.000,1.000,1.000,5.000,0
"05/07/08","16:08:13",1279.000,"cc",28315.147,6,0.100,1063.000,0.200,197.000,0.300,15.000,0.500,4.000,1.000,0,5.000,0
"05/07/08","16:08:19",1257.000,"cc",28300.867,6,0.100,1009.000,0.200,234.000,0.300,11.000,0.500,3.000,1.000,0,5.000,0
"05/07/08","16:08:25",1227.000,"cc",28267.543,6,0.100,1008.000,0.200,205.000,0.300,12.000,0.500,2.000,1.000,0,5.000,0
"05/07/08","16:08:31",1212.000,"cc",28320.447,6,0.100,954.000,0.200,236.000,0.300,20.000,0.500,2.000,1.000,0,5.000,0
"05/07/08","16:08:37",1322.000,"cc",28317.262,6,0.100,1034.000,0.200,267.000,0.300,18.000,0.500,3.000,1.000,0,5.000,0
"05/07/08","16:08:43",1310.000,"cc",28293.940,6,0.100,1035.000,0.200,250.000,0.300,21.000,0.500,4.000,1.000,0,5.000,0
"05/07/08","16:08:49",1295.000,"cc",28331.822,6,0.100,1020.000,0.200,249.000,0.300,22.000,0.500,4.000,1.000,0,5.000,0
"05/07/08","16:08:55",1295.000,"cc",28313.549,6,0.100,1026.000,0.200,242.000,0.300,19.000,0.500,8.000,1.000,0,5.000,0
"05/07/08","16:09:01",1248.000,"cc",28293.940,6,0.100,1006.000,0.200,217.000,0.300,19.000,0.500,5.000,1.000,1.000,5.000,0
"05/07/08","16:09:07",1356.000,"cc",28289.391,6,0.100,1082.000,0.200,255.000,0.300,16.000,0.500,3.000,1.000,0,5.000,0
"05/07/08","16:09:13",1288.000,"cc",28346.930,6,0.100,1042.000,0.200,227.000,0.300,16.000,0.500,2.000,1.000,1.000,5.000,0
"05/07/08","16:09:19",1348.000,"cc",28322.807,6,0.100,1077.000,0.200,250.000,0.300,18.000,0.500,3.000,1.000,0,5.000,0
"05/07/08","16:09:25",1313.000,"cc",28336.840,6,0.100,1034.000,0.200,264.000,0.300,13.000,0.500,2.000,1.000,0,5.000,0
"05/07/08","16:09:31",1360.000,"cc",28306.180,6,0.100,1076.000,0.200,257.000,0.300,23.000,0.500,3.000,1.000,1.000,5.000,0
"05/07/08","16:09:37",1383.000,"cc",28302.949,6,0.100,1080.000,0.200,271.000,0.300,29.000,0.500,2.000,1.000,1.000,5.000,0
"05/07/08","16:09:43",1375.000,"cc",28353.279,6,0.100,1110.000,0.200,240.000,0.300,17.000,0.500,7.000,1.000,1.000,5.000,0
"05/07/08","16:09:49",1313.000,"cc",28253.510,6,0.100,1065.000,0.200,227.000,0.300,17.000,0.500,2.000,1.000,2.000,5.000,0
"05/07/08","16:09:55",1332.000,"cc",28327.943,6,0.100,1074.000,0.200,241.000,0.300,14.000,0.500,2.000,1.000,1.000,5.000,0
"05/07/08","16:10:01",1346.000,"cc",28335.729,6,0.100,1082.000,0.200,256.000,0.300,7.000,0.500,1.000,1.000,0,5.000,0
"05/07/08","16:10:07",1331.000,"cc",28362.176,6,0.100,1055.000,0.200,252.000,0.300,18.000,0.500,5.000,1.000,1.000,5.000,0
"05/07/08","16:10:13",1285.000,"cc",28263.512,6,0.100,1018.000,0.200,253.000,0.300,10.000,0.500,4.000,1.000,0,5.000,0
"05/07/08","16:10:19",1374.000,"cc",28284.820,6,0.100,1102.000,0.200,254.000,0.300,14.000,0.500,3.000,1.000,1.000,5.000,0
"05/07/08","16:10:25",1345.000,"cc",28301.469,6,0.100,1075.000,0.200,254.000,0.300,12.000,0.500,4.000,1.000,0,5.000,0
"05/07/08","16:10:31",1371.000,"cc",28371.221,6,0.100,1109.000,0.200,241.000,0.300,19.000,0.500,2.000,1.000,0,5.000,0
"05/07/08","16:10:37",1336.000,"cc",28356.049,6,0.100,1091.000,0.200,216.000,0.300,24.000,0.500,4.000,1.000,1.000,5.000,0
"05/07/08","16:10:43",1328.000,"cc",28306.707,6,0.100,1089.000,0.200,219.000,0.300,18.000,0.500,2.000,1.000,0,5.000,0
"05/07/08","16:10:49",1402.000,"cc",28233.803,6,0.100,1131.000,0.200,241.000,0.300,26.000,0.500,4.000,1.000,0,5.000,0
"05/07/08","16:10:55",1433.000,"cc",28304.672,6,0.100,1153.000,0.200,247.000,0.300,29.000,0.500,4.000,1.000,0,5.000,0
"05/07/08","16:11:01",1340.000,"cc",28282.488,6,0.100,1067.000,0.200,251.000,0.300,17.000,0.500,5.000,1.000,0,5.000,0
"05/07/08","16:11:07",1358.000,"cc",28352.709,6,0.100,1076.000,0.200,257.000,0.300,19.000,0.500,5.000,1.000,1.000,5.000,0
"05/07/08","16:11:13",1341.000,"cc",28347.840,6,0.100,1084.000,0.200,241.000,0.300,9.000,0.500,5.000,1.000,2.000,5.000,0
"05/07/08","16:11:19",1475.000,"cc",28282.178,6,0.100,1186.000,0.200,269.000,0.300,15.000,0.500,4.000,1.000,1.000,5.000,0
"05/07/08","16:11:25",1428.000,"cc",28323.445,6,0.100,1141.000,0.200,264.000,0.300,18.000,0.500,4.000,1.000,1.000,5.000,0
"05/07/08","16:11:31",1489.000,"cc",28326.471,6,0.100,1200.000,0.200,278.000,0.300,9.000,0.500,2.000,1.000,0,5.000,0
"05/07/08","16:11:37",1430.000,"cc",28331.111,6,0.100,1139.000,0.200,268.000,0.300,18.000,0.500,5.000,1.000,0,5.000,0
"05/07/08","16:11:43",1410.000,"cc",28294.754,6,0.100,1159.000,0.200,231.000,0.300,16.000,0.500,3.000,1.000,1.000,5.000,0
"05/07/08","16:11:49",1392.000,"cc",28382.006,6,0.100,1137.000,0.200,241.000,0.300,10.000,0.500,4.000,1.000,0,5.000,0
"05/07/08","16:11:55",1353.000,"cc",28308.627,6,0.100,1074.000,0.200,269.000,0.300,8.000,0.500,2.000,1.000,0,5.000,0
"05/07/08","16:12:01",1389.000,"cc",28297.041,6,0.100,1090.000,0.200,275.000,0.300,16.000,0.500,7.000,1.000,1.000,5.000,0
"05/07/08","16:12:07",1357.000,"cc",28322.309,6,0.100,1102.000,0.200,235.000,0.300,16.000,0.500,3.000,1.000,1.000,5.000,0
"05/07/08","16:12:13",1366.000,"cc",28316.207,6,0.100,1100.000,0.200,260.000,0.300,6.000,0.500,0,1.000,0,5.000,0
"05/07/08","16:12:19",1425.000,"cc",28305.025,6,0.100,1156.000,0.200,253.000,0.300,12.000,0.500,2.000,1.000,2.000,5.000,0
"05/07/08","16:12:25",1390.000,"cc",28310.557,6,0.100,1112.000,0.200,254.000,0.300,17.000,0.500,5.000,1.000,2.000,5.000,0
"05/07/08","16:12:31",1364.000,"cc",28298.797,6,0.100,1097.000,0.200,241.000,0.300,23.000,0.500,3.000,1.000,0,5.000,0
"05/07/08","16:12:37",1415.000,"cc",28335.902,6,0.100,1144.000,0.200,244.000,0.300,19.000,0.500,7.000,1.000,1.000,5.000,0
"05/07/08","16:12:43",1390.000,"cc",28345.272,6,0.100,1104.000,0.200,266.000,0.300,15.000,0.500,4.000,1.000,1.000,5.000,0
"05/07/08","16:12:49",1346.000,"cc",28305.400,6,0.100,1039.000,0.200,283.000,0.300,20.000,0.500,4.000,1.000,0,5.000,0
"05/07/08","16:12:55",1384.000,"cc",28289.793,6,0.100,1111.000,0.200,248.000,0.300,19.000,0.500,6.000,1.000,0,5.000,0
"05/07/08","16:13:01",1405.000,"cc",28367.574,6,0.100,1142.000,0.200,239.000,0.300,15.000,0.500,9.000,1.000,0,5.000,0
"05/07/08","16:13:07",1317.000,"cc",28276.275,6,0.100,1050.000,0.200,237.000,0.300,22.000,0.500,7.000,1.000,1.000,5.000,0
"05/07/08","16:13:13",1378.000,"cc",28344.994,6,0.100,1099.000,0.200,260.000,0.300,17.000,0.500,2.000,1.000,0,5.000,0
"05/07/08","16:13:19",1301.000,"cc",28325.762,6,0.100,1042.000,0.200,236.000,0.300,18.000,0.500,3.000,1.000,2.000,5.000,0
"05/07/08","16:13:25",1357.000,"cc",28273.104,6,0.100,1091.000,0.200,246.000,0.300,17.000,0.500,3.000,1.000,0,5.000,0
"05/07/08","16:13:31",1345.000,"cc",28399.422,6,0.100,1086.000,0.200,237.000,0.300,18.000,0.500,2.000,1.000,2.000,5.000,0
"05/07/08","16:13:37",1358.000,"cc",28336.590,6,0.100,1090.000,0.200,240.000,0.300,24.000,0.500,4.000,1.000,0,5.000,0
"05/07/08","16:13:43",1302.000,"cc",28239.020,6,0.100,1063.000,0.200,219.000,0.300,18.000,0.500,1.000,1.000,1.000,5.000,0
"05/07/08","16:13:49",1264.000,"cc",28305.098,6,0.100,1046.000,0.200,198.000,0.300,17.000,0.500,3.000,1.000,0,5.000,0
"05/07/08","16:13:55",1250.000,"cc",28361.766,6,0.100,1022.000,0.200,206.000,0.300,18.000,0.500,4.000,1.000,0,5.000,0
"05/07/08","16:14:01",1308.000,"cc",28341.375,6,0.100,1059.000,0.200,222.000,0.300,23.000,0.500,3.000,1.000,1.000,5.000,0
"05/07/08","16:14:07",1218.000,"cc",28329.273,6,0.100,958.000,0.200,240.000,0.300,14.000,0.500,6.000,1.000,0,5.000,0
"05/07/08","16:14:13",1279.000,"cc",28320.863,6,0.100,1006.000,0.200,246.000,0.300,20.000,0.500,6.000,1.000,1.000,5.000,0
"05/07/08","16:14:19",1237.000,"cc",28311.451,6,0.100,998.000,0.200,224.000,0.300,13.000,0.500,2.000,1.000,0,5.000,0
"05/07/08","16:14:25",1214.000,"cc",28340.332,6,0.100,974.000,0.200,226.000,0.300,9.000,0.500,5.000,1.000,0,5.000,0
"05/07/08","16:14:31",1229.000,"cc",28330.762,6,0.100,1000.000,0.200,211.000,0.300,16.000,0.500,2.000,1.000,0,5.000,0
"05/07/08","16:14:37",1230.000,"cc",28271.625,6,0.100,967.000,0.200,231.000,0.300,28.000,0.500,3.000,1.000,1.000,5.000,0
"05/07/08","16:14:43",1226.000,"cc",28354.930,6,0.100,971.000,0.200,230.000,0.300,18.000,0.500,6.000,1.000,1.000,5.000,0
"05/07/08","16:14:49",1242.000,"cc",28359.549,6,0.100,1017.000,0.200,201.000,0.300,20.000,0.500,4.000,1.000,0,5.000,0
"05/07/08","16:14:55",1181.000,"cc",28230.752,6,0.100,955.000,0.200,203.000,0.300,21.000,0.500,2.000,1.000,0,5.000,0
"05/07/08","16:15:01",1238.000,"cc",28293.246,6,0.100,1044.000,0.200,180.000,0.300,13.000,0.500,0,1.000,1.000,5.000,0
"05/07/08","16:15:07",1243.000,"cc",28290.436,6,0.100,1005.000,0.200,213.000,0.300,21.000,0.500,4.000,1.000,0,5.000,0
"05/07/08","16:15:13",1236.000,"cc",28322.850,6,0.100,1010.000,0.200,208.000,0.300,14.000,0.500,3.000,1.000,1.000,5.000,0
"05/07/08","16:15:19",1310.000,"cc",28288.609,6,0.100,1045.000,0.200,246.000,0.300,17.000,0.500,2.000,1.000,0,5.000,0
"05/07/08","16:15:25",1218.000,"cc",28348.721,6,0.100,1011.000,0.200,182.000,0.300,17.000,0.500,8.000,1.000,0,5.000,0
"05/07/08","16:15:31",1350.000,"cc",28280.711,6,0.100,1084.000,0.200,242.000,0.300,18.000,0.500,6.000,1.000,0,5.000,0
"05/07/08","16:15:37",1258.000,"cc",28331.332,6,0.100,1019.000,0.200,218.000,0.300,19.000,0.500,2.000,1.000,0,5.000,0
"05/07/08","16:15:43",1339.000,"cc",28294.594,6,0.100,1078.000,0.200,243.000,0.300,15.000,0.500,2.000,1.000,1.000,5.000,0
"05/07/08","16:15:49",1303.000,"cc",28321.357,6,0.100,1053.000,0.200,234.000,0.300,12.000,0.500,4.000,1.000,0,5.000,0
"05/07/08","16:15:55",1370.000,"cc",28297.865,6,0.100,1098.000,0.200,259.000,0.300,10.000,0.500,1.000,1.000,2.000,5.000,0
"05/07/08","16:16:01",1377.000,"cc",28349.715,6,0.100,1103.000,0.200,244.000,0.300,23.000,0.500,7.000,1.000,0,5.000,0
"05/07/08","16:16:07",1422.000,"cc",28392.568,6,0.100,1159.000,0.200,242.000,0.300,18.000,0.500,3.000,1.000,0,5.000,0
"05/07/08","16:16:13",1321.000,"cc",28333.258,6,0.100,1068.000,0.200,237.000,0.300,15.000,0.500,1.000,1.000,0,5.000,0
"05/07/08","16:16:19",1363.000,"cc",28307.514,6,0.100,1085.000,0.200,249.000,0.300,24.000,0.500,2.000,1.000,3.000,5.000,0
"05/07/08","16:16:25",1372.000,"cc",28289.215,6,0.100,1096.000,0.200,249.000,0.300,23.000,0.500,2.000,1.000,2.000,5.000,0
"05/07/08","16:16:31",1395.000,"cc",28294.498,6,0.100,1122.000,0.200,249.000,0.300,19.000,0.500,3.000,1.000,2.000,5.000,0
"05/07/08","16:16:37",1431.000,"cc",28315.459,6,0.100,1152.000,0.200,262.000,0.300,15.000,0.500,2.000,1.000,0,5.000,0
"05/07/08","16:16:43",1342.000,"cc",28325.408,6,0.100,1096.000,0.200,227.000,0.300,14.000,0.500,5.000,1.000,0,5.000,0
"05/07/08","16:16:49",1339.000,"cc",28309.451,6,0.100,1092.000,0.200,234.000,0.300,8.000,0.500,4.000,1.000,1.000,5.000,0
"05/07/08","16:16:55",1347.000,"cc",28403.287,6,0.100,1112.000,0.200,221.000,0.300,12.000,0.500,2.000,1.000,0,5.000,0
"05/07/08","16:17:01",1305.000,"cc",28315.447,6,0.100,1055.000,0.200,228.000,0.300,19.000,0.500,2.000,1.000,1.000,5.000,0
"05/07/08","16:17:07",1239.000,"cc",28256.963,6,0.100,1018.000,0.200,206.000,0.300,13.000,0.500,2.000,1.000,0,5.000,0
"05/07/08","16:17:13",1278.000,"cc",28288.061,6,0.100,1016.000,0.200,245.000,0.300,9.000,0.500,7.000,1.000,1.000,5.000,0
"05/07/08","16:17:19",1164.000,"cc",28304.717,6,0.100,933.000,0.200,211.000,0.300,12.000,0.500,7.000,1.000,1.000,5.000,0
"05/07/08","16:17:25",1213.000,"cc",28364.674,6,0.100,954.000,0.200,233.000,0.300,22.000,0.500,3.000,1.000,1.000,5.000,0
"05/07/08","16:17:31",1137.000,"cc",28353.697,6,0.100,917.000,0.200,200.000,0.300,14.000,0.500,5.000,1.000,1.000,5.000,0
"05/07/08","16:17:37",1163.000,"cc",28343.570,6,0.100,941.000,0.200,202.000,0.300,14.000,0.500,5.000,1.000,1.000,5.000,0
"05/07/08","16:17:43",1078.000,"cc",28283.412,6,0.100,888.000,0.200,173.000,0.300,14.000,0.500,3.000,1.000,0,5.000,0
"05/07/08","16:17:49",1143.000,"cc",28336.656,6,0.100,932.000,0.200,189.000,0.300,18.000,0.500,3.000,1.000,1.000,5.000,0
"05/07/08","16:17:55",1156.000,"cc",28353.299,6,0.100,919.000,0.200,220.000,0.300,14.000,0.500,3.000,1.000,0,5.000,0
"05/07/08","16:18:01",1188.000,"cc",28339.977,6,0.100,975.000,0.200,197.000,0.300,12.000,0.500,3.000,1.000,1.000,5.000,0
"05/07/08","16:18:07",1178.000,"cc",28345.609,6,0.100,958.000,0.200,196.000,0.300,18.000,0.500,6.000,1.000,0,5.000,0
"05/07/08","16:18:13",1224.000,"cc",28306.395,6,0.100,976.000,0.200,228.000,0.300,16.000,0.500,4.000,1.000,0,5.000,0
"05/07/08","16:18:19",1185.000,"cc",28338.945,6,0.100,954.000,0.200,215.000,0.300,12.000,0.500,3.000,1.000,1.000,5.000,0
"05/07/08","16:18:25",1171.000,"cc",28294.238,6,0.100,954.000,0.200,203.000,0.300,9.000,0.500,5.000,1.000,0,5.000,0
"05/07/08","16:18:31",1126.000,"cc",28281.131,6,0.100,908.000,0.200,198.000,0.300,17.000,0.500,3.000,1.000,0,5.000,0
"05/07/08","16:18:37",1210.000,"cc",28373.789,6,0.100,968.000,0.200,223.000,0.300,16.000,0.500,3.000,1.000,0,5.000,0
"05/07/08","16:18:43",1216.000,"cc",28326.940,6,0.100,992.000,0.200,209.000,0.300,12.000,0.500,2.000,1.000,1.000,5.000,0
"05/07/08","16:18:49",1231.000,"cc",28240.777,6,0.100,987.000,0.200,228.000,0.300,12.000,0.500,4.000,1.000,0,5.000,0